Location: Melbourne
(37.8120°S, 144.9677°E)
Time: 11:19:37
(UTC+11:00)

ISS - Visible Passes

Search period start: 13 February 2016 00:00
Search period end: 23 February 2016 00:00
Orbit: 398 x 408 km, 51.6° (Epoch: 12 February)

Date Brightness Start Highest point End Pass type
(mag) Time Alt. Az. Time Alt. Az. Time Alt. Az.
13 Feb -1.6 05:02:08 23° SW 05:02:38 23° SSW 05:05:25 10° SSE visible
14 Feb -0.8 04:11:26 22° SSE 04:11:26 22° SSE 04:12:56 10° SE visible
14 Feb -0.5 05:46:02 10° SSW 05:46:57 11° SSW 05:47:53 10° S visible
15 Feb -0.8 04:53:17 14° SSW 04:53:51 14° SSW 04:55:48 10° SSE visible
16 Feb -0.3 04:02:29 15° SSE 04:02:29 15° SSE 04:03:25 10° SSE visible
17 Feb -0.3 04:44:51 10° SSW 04:45:04 10° SSW 04:45:18 10° S visible
18 Feb 0.1 03:53:23 10° S 03:53:23 10° S 03:53:32 10° S visible
19 Feb -0.2 06:13:07 10° S 06:14:00 11° SSE 06:14:52 10° SSE visible
21 Feb -0.4 06:02:45 10° SSW 06:04:54 16° SSE 06:07:02 10° ESE visible
22 Feb -0.1 05:10:22 10° S 05:11:35 12° SSE 05:12:49 10° SE visible
